{"data":{"norad_id":65217,"intl_designator":"2025-176V","name":"STARLINK-34871","alt_names":[],"object_type":"PAYLOAD","status":"ACTIVE","operator":null,"country":"US","launch_date":"2025-08-14","launch_site_code":"AFETR","launch_vehicle":null,"mission":null,"orbit_class":"UNKNOWN","rcs_meters":null,"size_class":null,"mass_kg":null,"dimensions":null,"purposes":["comms"],"wikipedia_slug":null,"has_3d_model":false,"image_url":null,"decayed_at":null,"tle_current":{"epoch":"2026-09-20T11:12:27.470304Z","epoch_age_seconds":123130,"freshness":"FRESH","line1":"1 65217U 25176V   26263.46698461  .00011951  00000+0  36422-3 0  9991","line2":"2 65217  53.1589 323.6163 0001173  85.9048 274.2088 15.34403970 63000","mean_motion":15.3440397,"eccentricity":0.0001173,"inclination_deg":53.1589,"raan_deg":323.6163,"arg_perigee_deg":85.9048,"mean_anomaly_deg":274.2088,"bstar":0.00036422,"rev_number":6300,"period_min":93.847515266791,"perigee_km":461.88901137983,"apogee_km":463.49386973198,"semimajor_km":6840.8284405559,"source":"CELESTRAK","updated_at":"2026-09-21T09:00:35.537230Z"}}}